Home   Weather   Chennai   Past weeks

Flag for India Past Weather in Chennai, Tamil Nadu, India — Yesterday and Last 2 Weeks

Now
86 °F

Haze.


Feels Like: 99 °F
Forecast: 78 / 90 °F
Wind: 8 mph from Southeast

Location: Madras / Minambakkam

Current Time: Oct 1, 2016 at 7:31:19 PM

Latest Report: Oct 1, 2016 at 6:30 PM


Visibility: 3 mi

Pressure: 29.65 "Hg

Humidity: 79%

Dew Point: 79 °F

Location of ChennaiLocation

Past Weather in Chennai — Graph

°F

Chennai Temperature Yesterday

Maximum temperature yesterday: 95 °F (at 3:00 PM)
Minimum temperature yesterday: 77 °F (at 1:30 AM)
Average temperature yesterday: 85 °F

High & Low Weather Summary for the Past Weeks

 TemperatureHumidityPressure
High99 °F (Sep 19, 2:30 PM)100% (Sep 17, 12:30 AM)29.77 "Hg (Sep 17, 12:30 AM)
Low73 °F (Sep 28, 11:30 PM)44% (Sep 18, 3:30 PM)29.50 "Hg (Sep 24, 2:30 PM)
Average85 °F73%29.65 "Hg
* Reported Sep 16 6:30 PM — Oct 1 6:30 PM, Chennai, Weather by CustomWeather, © 2016

Note: Actual official high and low records may vary slightly from our data, if they occured in-between our weather recording intervals... More about our weather records

Advertising

Chennai Weather History for the Previous 24 Hours

Scroll right to see more
 ConditionsComfort  
Time TempWeatherWind HumidityBarometerVisibility
6:30 PM
Sat, Oct 1
86 °FHaze.8 mph79%29.65 "Hg3 mi
6:00 PM88 °FHaze.8 mph75%29.65 "Hg3 mi
5:30 PM88 °FHaze.7 mph70%29.62 "Hg3 mi
5:00 PM90 °FHaze.6 mph67%29.62 "Hg3 mi
4:30 PM91 °FClear.6 mph63%29.62 "Hg4 mi
4:00 PM93 °FPassing clouds.3 mph53%29.62 "Hg4 mi
3:30 PM93 °FScattered clouds.5 mph53%29.62 "Hg4 mi
3:00 PM95 °FScattered clouds.5 mph47%29.62 "Hg5 mi
2:30 PM95 °FScattered clouds.6 mph50%29.62 "Hg5 mi
2:00 PM93 °FScattered clouds.6 mph49%29.62 "Hg5 mi
1:30 PM93 °FPassing clouds.6 mph49%29.62 "Hg4 mi
1:00 PM93 °FScattered clouds.7 mph53%29.65 "Hg4 mi
12:30 PM93 °FScattered clouds.7 mph53%29.65 "Hg4 mi
12:00 PM93 °FScattered clouds.6 mph53%29.68 "Hg4 mi
11:30 AM91 °FScattered clouds.9 mph52%29.68 "Hg4 mi
11:00 AM91 °FScattered clouds.7 mph52%29.68 "Hg4 mi
10:30 AM90 °FScattered clouds.9 mph59%29.68 "Hg4 mi
10:00 AM90 °FScattered clouds.12 mph59%29.68 "Hg4 mi
9:30 AM88 °FScattered clouds.9 mph62%29.71 "Hg3 mi
9:00 AM88 °FBroken clouds.9 mph62%29.68 "Hg3 mi
8:30 AM86 °FBroken clouds.7 mph70%29.68 "Hg3 mi
8:00 AM84 °FFog.6 mph79%29.68 "Hg3 mi
7:30 AM82 °FFog.5 mph84%29.65 "Hg3 mi
7:00 AM82 °FFog.No wind84%29.65 "Hg2 mi
6:30 AM81 °FFog.No wind89%29.65 "Hg2 mi
6:00 AM82 °FFog.No wind84%29.62 "Hg3 mi
5:30 AM82 °FFog.No wind84%29.62 "Hg3 mi
5:00 AM82 °FFog.No wind84%29.62 "Hg3 mi
4:30 AM82 °FFog.No wind84%29.62 "Hg3 mi
4:00 AM82 °FFog.No wind84%29.59 "Hg3 mi
3:30 AM82 °FFog.No wind84%29.59 "Hg3 mi
3:00 AM82 °FFog.No wind84%29.59 "Hg3 mi
2:30 AM82 °FFog.No wind84%29.59 "Hg3 mi
2:00 AM82 °FFog.No wind84%29.62 "Hg3 mi
1:30 AM81 °FFog.No wind84%29.62 "Hg3 mi
1:00 AM81 °FFog.No wind84%29.62 "Hg3 mi
12:30 AM81 °FPassing clouds.No wind84%29.65 "Hg4 mi
12:00 AM81 °FPassing clouds.No wind79%29.65 "Hg4 mi
11:30 PM
Fri, Sep 30
81 °FPassing clouds.No wind79%29.65 "Hg4 mi
11:00 PM81 °FPassing clouds.No wind79%29.65 "Hg4 mi
10:30 PM82 °FPartly cloudy.3 mph74%29.68 "Hg4 mi
10:00 PM82 °FPassing clouds.5 mph79%29.68 "Hg4 mi
9:30 PM84 °FPassing clouds.7 mph74%29.68 "Hg4 mi
9:00 PM84 °FPassing clouds.8 mph79%29.65 "Hg4 mi
8:30 PM86 °FPassing clouds.6 mph79%29.62 "Hg4 mi
8:00 PM86 °FPassing clouds.8 mph79%29.62 "Hg4 mi
7:30 PM88 °FPassing clouds.9 mph79%29.59 "Hg4 mi
7:00 PM86 °FPassing clouds.9 mph84%29.56 "Hg4 mi
Weather by CustomWeather, © 2016

See weather overviewHow to use our weather pages